Location: Bothwell
(42.3833°S, 147.0000°E)
Time: 18:54:22
(UTC+11:00)

DOVE 4 - Pass Details

Date: 05 October 2022
Orbit: 587 x 795 km, 97.8° (Epoch: 26 November)

Event Time Altitude Azimuth Distance (km) Brightness Sun altitude
Exits shadow 22:25:55 15° 146° (SSE) 2,074 ? -31.2°
Drops below altitude 10° 22:27:21 10° 160° (SSE) 2,401 ? -31.4°
Sets 22:30:21 0° 177° (S) 3,333 ? -31.8°
